Hourly Data Report for June 26, 2017

All times are specified in Local Standard Time (LST). Add 1 hour to adjust for Daylight Saving Time where and when it is observed.

ASHCROFT
BRITISH COLUMBIA

50°42'30.005" N
121°16'53.001" W
327.00 m
1160515
71681
VAS

Download Data

Hourly Data (June 2017)
Hourly Data Report for June 26, 2017
Temp Definition
°C
Dew Point Temp Definition
°C
Rel Hum Definition
%
Wind Dir Definition
10's deg

Wind Spd Definition
km/h
Visibility Definition
km
Stn Press Definition
kPa
Hmdx Definition


Wind Chill Definition


Weather Definition


TIME
00:00 28.5 0.8 17 18 7   96.92 27   LegendNANA
01:00 27.5 1.5 19 20 6   96.91 26   LegendNANA
02:00 25.9 2.6 22 21 3   96.87     LegendNANA
03:00 25.3 2.8 23 20 3   96.89     LegendNANA
04:00 23.9 2.7 25 4 4   96.93     LegendNANA
05:00 22.5 2.5 27 5 4   96.93     LegendNANA
06:00 21.1 2.8 30 4 2   96.95     LegendNANA
07:00 24.2 3.5 26 1 3   96.95     LegendNANA
08:00 26.9 4.2 23 35 8   96.87 26   LegendNANA
09:00 29.9 3.8 19 1 7   96.73 29   LegendNANA
10:00 31.7 2.2 15 21 17   96.62 30   LegendNANA
11:00 33.5 0.1 12 20 21   96.55 31   LegendNANA
12:00 34.3 -0.7 11 20 22   96.51 32   LegendNANA
13:00 34.3 -2.3 10 19 18   96.45 32   LegendNANA
14:00 34.4 LegendMM LegendMM 22 22   96.41     LegendNANA
15:00 35.0 LegendMM LegendMM 21 20   96.42     LegendNANA
16:00 33.6 LegendMM LegendMM 24 21   96.43     LegendNANA
17:00 33.7 LegendMM LegendMM 22 19   96.49     LegendNANA
18:00 31.9 LegendMM LegendMM 23 20   96.54     LegendNANA
19:00 30.2 LegendMM LegendMM 26 11   96.62     LegendNANA
20:00 27.6 -6.1 11 30 7   96.72     LegendNANA
21:00 26.6 -6.2 11 28 10   96.87     LegendNANA
22:00 24.0 -0.6 20 1 17   97.07     LegendNANA
23:00 22.6 -0.3 22 2 11   97.19     LegendNANA

Notes on Data Quality.

Legend

  • E = Estimated
  • M = Missing
  • NA = Not Available
  • ‡ = Partner data that is not subject to review by the National Climate Archives
Date modified: